P/2010 J5 ( McNaught )

Japanese version
Home page
Updated on December 15, 2011

---------------------------------------------------------------------

* Profile

Discovery Date May 12, 2010
Magnitude 19.1 mag
Discoverer R. H. McNaught (Siding Spring)

* Pictures

* Orbital Elements

Epoch 2009 Nov. 25.0 TT = JDT 2455160.5
T 2009 Nov. 6.59258 TT                                  MPC
q   3.7487204            (2000.0)            P               Q
n   0.11830996     Peri.  150.37681     -0.80487009     +0.58187788
a   4.1094956      Node    65.66626     -0.56654469     -0.69488899
e   0.0877906      Incl.    7.35404     -0.17666706     -0.42254871
P   8.33
From 106 observations 2005 Nov. 1-2011 Aug. 26, mean residual 0".5.

* Magnitudes Graph

        m1 = 10.2 + 5 log d + 10.0 log r

---------------------------------------------------------------------

The orbital elements are published on M.P.E.C. 2011-R11.
The magnitudes graphs are made with Comet for Windows.

---------------------------------------------------------------------

Copyright(C) Seiichi Yoshida (comet@aerith.net). All rights reserved.